| time (UTC) | temp F | wind direction | speed MPH | gust MPH | rain 1hr in | rain 24hr in | rain mn in | humidity % | barometer mb |
| 20260506001409 | 78 | 294 | 7.0 | 9.0 | 0.00 | 0.00 | 0.00 | 66 | 1001.8 |
| 20260506000906 | 78 | 278 | 2.0 | 8.0 | 0.00 | 0.00 | 0.00 | 66 | 1001.5 |
| 20260506000403 | 78 | 330 | 5.0 | 11.0 | 0.00 | 0.00 | 0.00 | 66 | 1001.5 |
| 20260505235900 | 78 | 9 | 8.0 | 17.0 | 0.00 | 0.00 | 0.00 | 66 | 1001.0 |
| 20260505235358 | 79 | 290 | 3.0 | 6.0 | 0.00 | 0.00 | 0.00 | 65 | 1001.1 |
| 20260505234854 | 80 | 284 | 6.0 | 9.0 | 0.00 | 0.00 | 0.00 | 65 | 1000.8 |
| 20260505234352 | 80 | 300 | 3.0 | 13.0 | 0.00 | 0.00 | 0.00 | 64 | 1001.0 |
| 20260505233848 | 80 | 341 | 9.0 | 11.0 | 0.00 | 0.00 | 0.00 | 63 | 1001.0 |
| 20260505233346 | 81 | 327 | 7.0 | 11.0 | 0.00 | 0.00 | 0.00 | 62 | 1001.1 |
| 20260505232844 | 82 | 342 | 7.0 | 13.0 | 0.00 | 0.00 | 0.00 | 62 | 1001.0 |
| 20260505232342 | 83 | 317 | 6.0 | 11.0 | 0.00 | 0.00 | 0.00 | 58 | 1000.7 |
| 20260505231838 | 84 | 329 | 5.0 | 9.0 | 0.00 | 0.00 | 0.00 | 55 | 1000.5 |
| 20260505231336 | 84 | 3 | 4.0 | 8.0 | 0.00 | 0.00 | 0.00 | 54 | 1000.6 |
| 20260505230834 | 85 | 287 | 8.0 | 11.0 | 0.00 | 0.00 | 0.00 | 52 | 1000.3 |
| 20260505230330 | 85 | 339 | 5.0 | 8.0 | 0.00 | 0.00 | 0.00 | 51 | 1000.3 |
| 20260505225827 | 86 | 319 | 3.0 | 7.0 | 0.00 | 0.00 | 0.00 | 50 | 1000.1 |
| 20260505225325 | 89 | 3 | 4.0 | 8.0 | 0.00 | 0.00 | 0.00 | 50 | 1000.1 |
| 20260505224819 | 89 | 252 | 3.0 | 5.0 | 0.00 | 0.00 | 0.00 | 54 | 999.9 |
| 20260505224318 | 89 | 186 | 0.0 | 2.0 | 0.00 | 0.00 | 0.00 | 53 | 999.9 |
| 20260505223814 | 88 | 222 | 1.0 | 5.0 | 0.00 | 0.00 | 0.00 | 54 | 1000.1 |
| 20260505223312 | 89 | 187 | 1.0 | 5.0 | 0.00 | 0.00 | 0.00 | 54 | 999.9 |
| 20260505222807 | 89 | 217 | 3.0 | 7.0 | 0.00 | 0.00 | 0.00 | 54 | 999.7 |
| 20260505222305 | 89 | 173 | 2.0 | 3.0 | 0.00 | 0.00 | 0.00 | 54 | 999.7 |
| 20260505221801 | 89 | 191 | 2.0 | 2.0 | 0.00 | 0.00 | 0.00 | 54 | 999.6 |
| 20260505221257 | 88 | 223 | 5.0 | 9.0 | 0.00 | 0.00 | 0.00 | 55 | 999.7 |
| 20260505220754 | 89 | 209 | 3.0 | 7.0 | 0.00 | 0.00 | 0.00 | 55 | 999.5 |
| 20260505220252 | 90 | 166 | 2.0 | 7.0 | 0.00 | 0.00 | 0.00 | 55 | 999.8 |
| 20260505215750 | 89 | 185 | 2.0 | 6.0 | 0.00 | 0.00 | 0.00 | 55 | 999.8 |
| 20260505215247 | 88 | 203 | 2.0 | 3.0 | 0.00 | 0.00 | 0.00 | 55 | 999.8 |
| 20260505214745 | 88 | 0 | 1.0 | 3.0 | 0.00 | 0.00 | 0.00 | 57 | 999.9 |
| 20260505214242 | 89 | 136 | 3.0 | 7.0 | 0.00 | 0.00 | 0.00 | 55 | 999.8 |
| 20260505213739 | 88 | 185 | 4.0 | 5.0 | 0.00 | 0.00 | 0.00 | 56 | 999.6 |
| 20260505213236 | 89 | 175 | 5.0 | 8.0 | 0.00 | 0.00 | 0.00 | 57 | 999.9 |
| 20260505212732 | 89 | 210 | 4.0 | 9.0 | 0.00 | 0.00 | 0.00 | 58 | 999.9 |
| 20260505212230 | 88 | 196 | 3.0 | 5.0 | 0.00 | 0.00 | 0.00 | 60 | 1000.0 |
| 20260505211726 | 89 | 277 | 5.0 | 8.0 | 0.00 | 0.00 | 0.00 | 58 | 1000.1 |
| 20260505211224 | 89 | 205 | 1.0 | 5.0 | 0.00 | 0.00 | 0.00 | 57 | 1000.1 |
| 20260505210720 | 89 | 204 | 1.0 | 8.0 | 0.00 | 0.00 | 0.00 | 60 | 1000.3 |
| 20260505210217 | 89 | 213 | 2.0 | 7.0 | 0.00 | 0.00 | 0.00 | 59 | 1000.0 |
| 20260505205714 | 88 | 217 | 7.0 | 9.0 | 0.00 | 0.00 | 0.00 | 59 | 1000.3 |
| 20260505205213 | 87 | 188 | 5.0 | 10.0 | 0.00 | 0.00 | 0.00 | 61 | 1000.3 |
| 20260505204709 | 87 | 202 | 3.0 | 13.0 | 0.00 | 0.00 | 0.00 | 62 | 1000.2 |
| 20260505204207 | 89 | 136 | 5.0 | 11.0 | 0.00 | 0.00 | 0.00 | 60 | 1000.5 |
| 20260505203704 | 88 | 188 | 2.0 | 7.0 | 0.00 | 0.00 | 0.00 | 61 | 1000.5 |
| 20260505203201 | 87 | 212 | 5.0 | 13.0 | 0.00 | 0.00 | 0.00 | 63 | 1000.7 |
| 20260505202656 | 87 | 99 | 2.0 | 9.0 | 0.00 | 0.00 | 0.00 | 62 | 1000.6 |
| 20260505202153 | 87 | 250 | 2.0 | 13.0 | 0.00 | 0.00 | 0.00 | 62 | 1000.5 |
| 20260505201649 | 87 | 133 | 1.0 | 10.0 | 0.00 | 0.00 | 0.00 | 63 | 1000.6 |
| 20260505201147 | 86 | 31 | 2.0 | 11.0 | 0.00 | 0.00 | 0.00 | 64 | 1000.7 |
| 20260505200645 | 87 | 172 | 9.0 | 15.0 | 0.00 | 0.00 | 0.00 | 63 | 1000.7 |
| 20260505200141 | 86 | 116 | 1.0 | 8.0 | 0.00 | 0.00 | 0.00 | 64 | 1000.8 |
| 20260505195637 | 86 | 142 | 5.0 | 8.0 | 0.00 | 0.00 | 0.00 | 63 | 1001.0 |
| 20260505195135 | 86 | 174 | 7.0 | 11.0 | 0.00 | 0.00 | 0.00 | 64 | 1001.0 |
| 20260505194632 | 86 | 158 | 7.0 | 13.0 | 0.00 | 0.00 | 0.00 | 64 | 1001.1 |
| 20260505194128 | 86 | 161 | 3.0 | 10.0 | 0.00 | 0.00 | 0.00 | 65 | 1000.8 |
| 20260505193625 | 85 | 181 | 7.0 | 11.0 | 0.00 | 0.00 | 0.00 | 65 | 1001.1 |
| 20260505193122 | 85 | 215 | 5.0 | 14.0 | 0.00 | 0.00 | 0.00 | 66 | 1001.1 |
| 20260505192621 | 85 | 183 | 5.0 | 10.0 | 0.00 | 0.00 | 0.00 | 66 | 1001.0 |
| 20260505192117 | 85 | 103 | 4.0 | 10.0 | 0.00 | 0.00 | 0.00 | 66 | 1000.8 |
| 20260505191616 | 84 | 164 | 3.0 | 11.0 | 0.00 | 0.00 | 0.00 | 67 | 1001.1 |
| 20260505191113 | 84 | 146 | 7.0 | 14.0 | 0.00 | 0.00 | 0.00 | 67 | 1001.0 |
| 20260505190609 | 84 | 196 | 9.0 | 11.0 | 0.00 | 0.00 | 0.00 | 67 | 1001.0 |
| 20260505190104 | 85 | 202 | 7.0 | 14.0 | 0.00 | 0.00 | 0.00 | 66 | 1001.1 |
| 20260505185601 | 83 | 209 | 2.0 | 8.0 | 0.00 | 0.00 | 0.00 | 69 | 1001.1 |
| 20260505185057 | 83 | 221 | 3.0 | 11.0 | 0.00 | 0.00 | 0.00 | 69 | 1001.2 |
| 20260505184555 | 82 | 141 | 4.0 | 8.0 | 0.00 | 0.00 | 0.00 | 70 | 1001.2 |
| 20260505184051 | 83 | 208 | 3.0 | 9.0 | 0.00 | 0.00 | 0.00 | 69 | 1001.3 |
| 20260505183548 | 82 | 185 | 5.0 | 9.0 | 0.00 | 0.00 | 0.00 | 70 | 1001.2 |
| 20260505183045 | 82 | 172 | 3.0 | 11.0 | 0.00 | 0.00 | 0.00 | 71 | 1001.1 |
| 20260505182541 | 82 | 149 | 5.0 | 9.0 | 0.00 | 0.00 | 0.00 | 71 | 1001.1 |
| 20260505182038 | 81 | 142 | 3.0 | 11.0 | 0.00 | 0.00 | 0.00 | 72 | 1001.2 |
| 20260505181535 | 82 | 198 | 5.0 | 10.0 | 0.00 | 0.00 | 0.00 | 71 | 1001.2 |
| 20260505181033 | 82 | 186 | 5.0 | 14.0 | 0.00 | 0.00 | 0.00 | 71 | 1001.3 |
| 20260505180528 | 82 | 154 | 8.0 | 11.0 | 0.00 | 0.00 | 0.00 | 72 | 1001.3 |
| 20260505180027 | 82 | 186 | 3.0 | 8.0 | 0.00 | 0.00 | 0.00 | 71 | 1001.1 |
| 20260505175526 | 81 | 154 | 7.0 | 15.0 | 0.00 | 0.00 | 0.00 | 73 | 1001.2 |
| 20260505175024 | 81 | 179 | 6.0 | 15.0 | 0.00 | 0.00 | 0.00 | 72 | 1001.2 |
| 20260505174520 | 81 | 181 | 8.0 | 10.0 | 0.00 | 0.00 | 0.00 | 72 | 1001.1 |
| 20260505174016 | 80 | 187 | 6.0 | 14.0 | 0.00 | 0.00 | 0.00 | 72 | 1001.3 |
| 20260505173513 | 81 | 147 | 5.0 | 10.0 | 0.00 | 0.00 | 0.00 | 73 | 1001.3 |
| 20260505173010 | 81 | 221 | 6.0 | 11.0 | 0.00 | 0.00 | 0.00 | 73 | 1001.3 |
| 20260505172508 | 80 | 198 | 3.0 | 9.0 | 0.00 | 0.00 | 0.00 | 73 | 1001.4 |
| 20260505172003 | 80 | 133 | 2.0 | 7.0 | 0.00 | 0.00 | 0.00 | 74 | 1001.4 |
| 20260505171459 | 79 | 210 | 6.0 | 11.0 | 0.00 | 0.00 | 0.00 | 74 | 1001.6 |
| 20260505170956 | 79 | 228 | 6.0 | 13.0 | 0.00 | 0.00 | 0.00 | 75 | 1001.5 |
| 20260505170452 | 79 | 250 | 9.0 | 14.0 | 0.00 | 0.00 | 0.00 | 75 | 1001.5 |
| 20260505165948 | 79 | 147 | 3.0 | 14.0 | 0.00 | 0.00 | 0.00 | 75 | 1001.5 |
| 20260505165445 | 79 | 169 | 6.0 | 15.0 | 0.00 | 0.00 | 0.00 | 75 | 1001.5 |
| 20260505164940 | 79 | 167 | 4.0 | 15.0 | 0.00 | 0.00 | 0.00 | 75 | 1001.3 |
| 20260505164437 | 79 | 190 | 8.0 | 14.0 | 0.00 | 0.00 | 0.00 | 75 | 1001.5 |
| 20260505163935 | 78 | 141 | 4.0 | 11.0 | 0.00 | 0.00 | 0.00 | 76 | 1001.3 |
| 20260505163433 | 79 | 222 | 5.0 | 15.0 | 0.00 | 0.00 | 0.00 | 76 | 1001.3 |
| 20260505162932 | 78 | 169 | 4.0 | 11.0 | 0.00 | 0.00 | 0.00 | 76 | 1001.3 |
| 20260505162427 | 78 | 259 | 7.0 | 16.0 | 0.00 | 0.00 | 0.00 | 77 | 1001.3 |
| 20260505161924 | 78 | 208 | 8.0 | 13.0 | 0.00 | 0.00 | 0.00 | 77 | 1001.3 |
| 20260505161421 | 78 | 149 | 6.0 | 18.0 | 0.00 | 0.00 | 0.00 | 76 | 1001.4 |
| 20260505160919 | 78 | 207 | 6.0 | 15.0 | 0.00 | 0.00 | 0.00 | 76 | 1001.3 |
| 20260505160416 | 78 | 185 | 7.0 | 15.0 | 0.00 | 0.00 | 0.00 | 76 | 1001.0 |
| 20260505153355 | 77 | 213 | 8.0 | 11.0 | 0.00 | 0.00 | 0.00 | 77 | 1000.8 |
| 20260505152852 | 77 | 175 | 3.0 | 9.0 | 0.00 | 0.00 | 0.00 | 78 | 1001.0 |
| 20260505152344 | 77 | 176 | 7.0 | 17.0 | 0.00 | 0.00 | 0.00 | 78 | 1001.1 |
| 20260505151843 | 77 | 185 | 7.0 | 13.0 | 0.00 | 0.00 | 0.00 | 78 | 1001.2 |
| 20260505151340 | 77 | 164 | 6.0 | 10.0 | 0.00 | 0.00 | 0.00 | 79 | 1001.1 |
| 20260505150837 | 76 | 209 | 6.0 | 16.0 | 0.00 | 0.00 | 0.00 | 80 | 1001.4 |
| 20260505150334 | 76 | 183 | 6.0 | 11.0 | 0.00 | 0.00 | 0.00 | 80 | 1001.1 |
| 20260505140259 | 73 | 187 | 5.0 | 9.0 | 0.00 | 0.00 | 0.00 | 84 | 1001.3 |
| 20260505130223 | 72 | 126 | 5.0 | 18.0 | 0.00 | 0.00 | 0.00 | 86 | 1001.0 |
| 20260505124713 | 72 | 178 | 6.0 | 17.0 | 0.00 | 0.00 | 0.00 | 86 | 1000.6 |
| 20260505124210 | 72 | 123 | 8.0 | 14.0 | 0.00 | 0.00 | 0.00 | 86 | 1000.6 |
| 20260505123705 | 72 | 178 | 5.0 | 10.0 | 0.00 | 0.00 | 0.00 | 86 | 1000.7 |
| 20260505123202 | 72 | 186 | 4.0 | 14.0 | 0.00 | 0.00 | 0.00 | 86 | 1000.4 |
| 20260505122659 | 72 | 219 | 3.0 | 7.0 | 0.00 | 0.00 | 0.00 | 86 | 1000.3 |
| 20260505122156 | 72 | 182 | 3.0 | 6.0 | 0.00 | 0.00 | 0.00 | 86 | 1000.3 |
| 20260505121653 | 72 | 211 | 7.0 | 11.0 | 0.00 | 0.00 | 0.00 | 86 | 1000.3 |
| 20260505121149 | 72 | 142 | 6.0 | 9.0 | 0.00 | 0.00 | 0.00 | 86 | 1000.4 |
| 20260505120645 | 72 | 194 | 8.0 | 9.0 | 0.00 | 0.00 | 0.00 | 86 | 1000.1 |
| 20260505120142 | 72 | 202 | 5.0 | 14.0 | 0.00 | 0.00 | 0.00 | 86 | 1000.3 |
| 20260505115635 | 72 | 202 | 5.0 | 7.0 | 0.00 | 0.00 | 0.00 | 86 | 1000.2 |
| 20260505115134 | 72 | 223 | 3.0 | 8.0 | 0.00 | 0.00 | 0.00 | 86 | 1000.0 |
| 20260505114630 | 72 | 134 | 5.0 | 8.0 | 0.00 | 0.00 | 0.00 | 86 | 1000.2 |
| 20260505114127 | 72 | 206 | 5.0 | 11.0 | 0.00 | 0.00 | 0.00 | 86 | 1000.1 |
| 20260505113623 | 71 | 127 | 6.0 | 11.0 | 0.00 | 0.00 | 0.00 | 86 | 1000.0 |
| 20260505113120 | 71 | 192 | 3.0 | 6.0 | 0.00 | 0.00 | 0.00 | 86 | 1000.2 |
| 20260505112616 | 72 | 148 | 4.0 | 9.0 | 0.00 | 0.00 | 0.00 | 86 | 999.7 |
| 20260505112114 | 71 | 67 | 5.0 | 10.0 | 0.00 | 0.00 | 0.00 | 86 | 1000.0 |
| 20260505111608 | 71 | 138 | 6.0 | 10.0 | 0.00 | 0.00 | 0.00 | 86 | 1000.0 |
| 20260505111104 | 72 | 184 | 4.0 | 6.0 | 0.00 | 0.00 | 0.00 | 86 | 1000.2 |
| 20260505110601 | 72 | 191 | 6.0 | 14.0 | 0.00 | 0.00 | 0.00 | 84 | 1000.0 |
| 20260505102033 | 71 | 142 | 4.0 | 11.0 | 0.00 | 0.00 | 0.00 | 86 | 1000.1 |
| 20260505101532 | 71 | 172 | 3.0 | 10.0 | 0.00 | 0.00 | 0.00 | 86 | 1000.1 |
| 20260505101028 | 71 | 210 | 3.0 | 7.0 | 0.00 | 0.00 | 0.00 | 86 | 1000.2 |
| 20260505100525 | 71 | 205 | 3.0 | 6.0 | 0.00 | 0.00 | 0.00 | 86 | 1000.2 |
| 20260505100022 | 72 | 143 | 2.0 | 3.0 | 0.00 | 0.00 | 0.00 | 86 | 1000.2 |
| 20260505095518 | 72 | 173 | 6.0 | 10.0 | 0.00 | 0.00 | 0.00 | 85 | 1000.1 |
| 20260505095014 | 72 | 178 | 4.0 | 7.0 | 0.00 | 0.00 | 0.00 | 86 | 1000.2 |
| 20260505094511 | 71 | 191 | 10.0 | 13.0 | 0.00 | 0.00 | 0.00 | 86 | 1000.0 |
| 20260505094007 | 72 | 176 | 5.0 | 14.0 | 0.00 | 0.00 | 0.00 | 85 | 1000.4 |
| 20260505093503 | 71 | 184 | 4.0 | 9.0 | 0.00 | 0.00 | 0.00 | 86 | 1000.2 |
| 20260505093001 | 72 | 194 | 3.0 | 6.0 | 0.00 | 0.00 | 0.00 | 86 | 1000.3 |
| 20260505092458 | 71 | 167 | 3.0 | 8.0 | 0.00 | 0.00 | 0.00 | 86 | 1000.4 |
| 20260505091956 | 71 | 187 | 5.0 | 9.0 | 0.00 | 0.00 | 0.00 | 86 | 1000.5 |
| 20260505091453 | 71 | 226 | 11.0 | 17.0 | 0.00 | 0.00 | 0.00 | 86 | 1000.7 |
| 20260505090951 | 71 | 142 | 7.0 | 10.0 | 0.00 | 0.00 | 0.00 | 86 | 1000.4 |
| 20260505090449 | 71 | 226 | 6.0 | 14.0 | 0.00 | 0.00 | 0.00 | 86 | 1000.6 |
| 20260505085946 | 71 | 170 | 7.0 | 9.0 | 0.00 | 0.00 | 0.00 | 86 | 1000.5 |
| 20260505085444 | 71 | 163 | 5.0 | 11.0 | 0.00 | 0.00 | 0.00 | 86 | 1000.6 |
| 20260505084942 | 71 | 235 | 4.0 | 7.0 | 0.00 | 0.00 | 0.00 | 87 | 1000.4 |
| 20260505084440 | 71 | 192 | 7.0 | 10.0 | 0.00 | 0.00 | 0.00 | 87 | 1000.6 |
| 20260505083938 | 71 | 159 | 5.0 | 13.0 | 0.00 | 0.00 | 0.00 | 86 | 1000.6 |
| 20260505083435 | 71 | 204 | 5.0 | 8.0 | 0.00 | 0.00 | 0.00 | 86 | 1000.6 |
| 20260505082931 | 71 | 200 | 5.0 | 10.0 | 0.00 | 0.00 | 0.00 | 86 | 1000.5 |
| 20260505082427 | 71 | 174 | 5.0 | 14.0 | 0.00 | 0.00 | 0.00 | 86 | 1000.6 |
| 20260505081924 | 71 | 183 | 3.0 | 7.0 | 0.00 | 0.00 | 0.00 | 86 | 1000.7 |
| 20260505081421 | 71 | 139 | 3.0 | 8.0 | 0.00 | 0.00 | 0.00 | 86 | 1000.6 |
| 20260505080917 | 71 | 153 | 5.0 | 8.0 | 0.00 | 0.00 | 0.00 | 85 | 1000.7 |
| 20260505080414 | 71 | 195 | 8.0 | 11.0 | 0.00 | 0.00 | 0.00 | 85 | 1000.6 |
| 20260505075909 | 71 | 187 | 10.0 | 16.0 | 0.00 | 0.00 | 0.00 | 85 | 1000.7 |
| 20260505075406 | 71 | 174 | 6.0 | 7.0 | 0.00 | 0.00 | 0.00 | 85 | 1000.8 |
| 20260505074903 | 71 | 195 | 6.0 | 9.0 | 0.00 | 0.00 | 0.00 | 84 | 1000.8 |
| 20260505074400 | 72 | 190 | 4.0 | 6.0 | 0.00 | 0.00 | 0.00 | 84 | 1001.1 |
| 20260505073857 | 72 | 175 | 3.0 | 8.0 | 0.00 | 0.00 | 0.00 | 84 | 1001.0 |
| 20260505073355 | 72 | 202 | 6.0 | 11.0 | 0.00 | 0.00 | 0.00 | 84 | 1001.1 |
| 20260505072852 | 72 | 128 | 3.0 | 13.0 | 0.00 | 0.00 | 0.00 | 83 | 1001.1 |
| 20260505072348 | 72 | 154 | 4.0 | 16.0 | 0.00 | 0.00 | 0.00 | 83 | 1001.5 |
| 20260505071845 | 72 | 163 | 5.0 | 10.0 | 0.00 | 0.00 | 0.00 | 83 | 1001.6 |
| 20260505071341 | 72 | 148 | 2.0 | 5.0 | 0.00 | 0.00 | 0.00 | 83 | 1001.5 |
| 20260505070839 | 72 | 194 | 6.0 | 9.0 | 0.00 | 0.00 | 0.00 | 82 | 1001.5 |
| 20260505070335 | 72 | 141 | 8.0 | 10.0 | 0.00 | 0.00 | 0.00 | 82 | 1001.6 |
| 20260505065831 | 72 | 179 | 5.0 | 14.0 | 0.00 | 0.00 | 0.00 | 82 | 1001.5 |
| 20260505065328 | 72 | 127 | 8.0 | 14.0 | 0.00 | 0.00 | 0.00 | 81 | 1001.6 |
| 20260505064825 | 72 | 213 | 6.0 | 16.0 | 0.00 | 0.00 | 0.00 | 81 | 1001.8 |
| 20260505064322 | 72 | 187 | 9.0 | 13.0 | 0.00 | 0.00 | 0.00 | 81 | 1001.7 |
| 20260505063820 | 72 | 176 | 3.0 | 8.0 | 0.00 | 0.00 | 0.00 | 81 | 1001.9 |
| 20260505063315 | 72 | 211 | 8.0 | 10.0 | 0.00 | 0.00 | 0.00 | 81 | 1001.8 |
| 20260505062812 | 72 | 220 | 7.0 | 9.0 | 0.00 | 0.00 | 0.00 | 80 | 1001.9 |
| 20260505062310 | 72 | 208 | 5.0 | 8.0 | 0.00 | 0.00 | 0.00 | 80 | 1002.0 |
| 20260505061806 | 72 | 171 | 5.0 | 7.0 | 0.00 | 0.00 | 0.00 | 80 | 1001.9 |
| 20260505061305 | 72 | 200 | 7.0 | 14.0 | 0.00 | 0.00 | 0.00 | 80 | 1002.1 |
| 20260505060802 | 72 | 202 | 5.0 | 11.0 | 0.00 | 0.00 | 0.00 | 80 | 1002.0 |
| 20260505060259 | 73 | 176 | 5.0 | 14.0 | 0.00 | 0.00 | 0.00 | 79 | 1001.8 |
| 20260505055754 | 73 | 208 | 5.0 | 13.0 | 0.00 | 0.00 | 0.00 | 79 | 1001.9 |
| 20260505055250 | 73 | 191 | 8.0 | 10.0 | 0.00 | 0.00 | 0.00 | 79 | 1002.0 |
| 20260505054748 | 73 | 200 | 7.0 | 9.0 | 0.00 | 0.00 | 0.00 | 78 | 1002.0 |
| 20260505054245 | 73 | 190 | 10.0 | 14.0 | 0.00 | 0.00 | 0.00 | 78 | 1002.3 |
| 20260505053744 | 73 | 116 | 3.0 | 10.0 | 0.00 | 0.00 | 0.00 | 78 | 1002.0 |
| 20260505053240 | 73 | 238 | 8.0 | 11.0 | 0.00 | 0.00 | 0.00 | 78 | 1002.2 |
| 20260505052737 | 73 | 186 | 7.0 | 10.0 | 0.00 | 0.00 | 0.00 | 77 | 1002.2 |
| 20260505052234 | 73 | 154 | 8.0 | 13.0 | 0.00 | 0.00 | 0.00 | 77 | 1002.3 |
| 20260505051731 | 73 | 163 | 7.0 | 10.0 | 0.00 | 0.00 | 0.00 | 77 | 1002.1 |
| 20260505051229 | 73 | 135 | 5.0 | 9.0 | 0.00 | 0.00 | 0.00 | 76 | 1002.2 |
| 20260505050727 | 73 | 139 | 8.0 | 20.0 | 0.00 | 0.00 | 0.00 | 76 | 1002.3 |
| 20260505050225 | 74 | 156 | 6.0 | 8.0 | 0.00 | 0.00 | 0.00 | 75 | 1002.2 |
| 20260505041654 | 74 | 206 | 5.0 | 10.0 | 0.00 | 0.00 | 0.00 | 74 | 1002.6 |
| 20260505041152 | 74 | 180 | 9.0 | 20.0 | 0.00 | 0.00 | 0.00 | 73 | 1002.5 |
| 20260505040649 | 74 | 140 | 8.0 | 10.0 | 0.00 | 0.00 | 0.00 | 73 | 1002.4 |
| 20260505040146 | 74 | 185 | 4.0 | 7.0 | 0.00 | 0.00 | 0.00 | 73 | 1002.9 |
| 20260505035642 | 74 | 156 | 4.0 | 6.0 | 0.00 | 0.00 | 0.00 | 73 | 1002.6 |
| 20260505035138 | 74 | 189 | 5.0 | 8.0 | 0.00 | 0.00 | 0.00 | 73 | 1002.5 |
| 20260505034635 | 74 | 96 | 3.0 | 6.0 | 0.00 | 0.00 | 0.00 | 73 | 1002.6 |
| 20260505034132 | 75 | 161 | 4.0 | 9.0 | 0.00 | 0.00 | 0.00 | 72 | 1002.6 |
| 20260505033628 | 75 | 166 | 7.0 | 13.0 | 0.00 | 0.00 | 0.00 | 72 | 1002.5 |
| 20260505033127 | 75 | 212 | 7.0 | 13.0 | 0.00 | 0.00 | 0.00 | 72 | 1002.5 |
| 20260505032625 | 75 | 174 | 5.0 | 13.0 | 0.00 | 0.00 | 0.00 | 71 | 1002.6 |
| 20260505032121 | 75 | 227 | 3.0 | 10.0 | 0.00 | 0.00 | 0.00 | 71 | 1002.5 |
| 20260505031618 | 75 | 130 | 9.0 | 10.0 | 0.00 | 0.00 | 0.00 | 71 | 1002.7 |
| 20260505031114 | 75 | 151 | 7.0 | 11.0 | 0.00 | 0.00 | 0.00 | 71 | 1002.7 |
| 20260505030612 | 75 | 166 | 4.0 | 8.0 | 0.00 | 0.00 | 0.00 | 71 | 1002.5 |
| 20260505030108 | 75 | 144 | 7.0 | 11.0 | 0.00 | 0.00 | 0.00 | 70 | 1002.6 |
| 20260505025603 | 75 | 166 | 2.0 | 6.0 | 0.00 | 0.00 | 0.00 | 71 | 1002.7 |
| 20260505025103 | 75 | 175 | 3.0 | 11.0 | 0.00 | 0.00 | 0.00 | 70 | 1002.7 |
| 20260505024559 | 75 | 173 | 3.0 | 11.0 | 0.00 | 0.00 | 0.00 | 70 | 1002.5 |
| 20260505024056 | 75 | 184 | 5.0 | 6.0 | 0.00 | 0.00 | 0.00 | 70 | 1002.5 |
| 20260505023554 | 75 | 143 | 3.0 | 6.0 | 0.00 | 0.00 | 0.00 | 70 | 1002.6 |
| 20260505023051 | 75 | 152 | 3.0 | 7.0 | 0.00 | 0.00 | 0.00 | 70 | 1002.6 |
| 20260505022548 | 75 | 177 | 4.0 | 6.0 | 0.00 | 0.00 | 0.00 | 70 | 1002.5 |
| 20260505022045 | 75 | 134 | 4.0 | 8.0 | 0.00 | 0.00 | 0.00 | 70 | 1002.2 |
| 20260505021542 | 75 | 189 | 9.0 | 11.0 | 0.00 | 0.00 | 0.00 | 69 | 1002.4 |
| 20260505021039 | 75 | 164 | 4.0 | 8.0 | 0.00 | 0.00 | 0.00 | 69 | 1002.2 |
| 20260505020538 | 75 | 134 | 4.0 | 9.0 | 0.00 | 0.00 | 0.00 | 69 | 1002.4 |
| 20260505020036 | 75 | 183 | 3.0 | 5.0 | 0.00 | 0.00 | 0.00 | 70 | 1002.4 |
| 20260505015533 | 76 | 177 | 2.0 | 7.0 | 0.00 | 0.00 | 0.00 | 69 | 1002.2 |
| 20260505015030 | 76 | 90 | 7.0 | 9.0 | 0.00 | 0.00 | 0.00 | 69 | 1002.3 |
| 20260505014526 | 76 | 159 | 4.0 | 13.0 | 0.00 | 0.00 | 0.00 | 69 | 1002.4 |
| 20260505014024 | 76 | 125 | 4.0 | 13.0 | 0.00 | 0.00 | 0.00 | 68 | 1002.3 |
| 20260505013521 | 76 | 131 | 3.0 | 9.0 | 0.00 | 0.00 | 0.00 | 68 | 1002.3 |
| 20260505013018 | 76 | 148 | 2.0 | 13.0 | 0.00 | 0.00 | 0.00 | 68 | 1002.4 |
| 20260505012516 | 76 | 181 | 8.0 | 14.0 | 0.00 | 0.00 | 0.00 | 68 | 1002.4 |
| 20260505012013 | 77 | 183 | 7.0 | 13.0 | 0.00 | 0.00 | 0.00 | 67 | 1002.5 |
| 20260505011508 | 77 | 148 | 6.0 | 11.0 | 0.00 | 0.00 | 0.00 | 67 | 1002.3 |
| 20260505011006 | 77 | 101 | 4.0 | 9.0 | 0.00 | 0.00 | 0.00 | 67 | 1002.4 |
| 20260505010501 | 77 | 177 | 7.0 | 9.0 | 0.00 | 0.00 | 0.00 | 67 | 1002.3 |
| 20260505005957 | 77 | 154 | 5.0 | 9.0 | 0.00 | 0.00 | 0.00 | 66 | 1002.4 |
| 20260505005454 | 77 | 192 | 5.0 | 9.0 | 0.00 | 0.00 | 0.00 | 66 | 1002.2 |
| 20260505004952 | 77 | 133 | 6.0 | 14.0 | 0.00 | 0.00 | 0.00 | 66 | 1002.2 |
| 20260505004449 | 77 | 223 | 8.0 | 11.0 | 0.00 | 0.00 | 0.00 | 65 | 1002.4 |
| 20260505003945 | 77 | 158 | 9.0 | 11.0 | 0.00 | 0.00 | 0.00 | 65 | 1002.4 |
| 20260505003442 | 77 | 212 | 8.0 | 13.0 | 0.00 | 0.00 | 0.00 | 65 | 1002.2 |
| 20260505002939 | 77 | 167 | 5.0 | 15.0 | 0.00 | 0.00 | 0.00 | 65 | 1002.5 |
| 20260505002435 | 78 | 138 | 6.0 | 14.0 | 0.00 | 0.00 | 0.00 | 64 | 1002.2 |
| 20260505001934 | 78 | 181 | 4.0 | 9.0 | 0.00 | 0.00 | 0.00 | 64 | 1002.5 |